Other Public Products
Issued by NWS Grand Forks, ND

Home | Current Version | Previous Version | Text Only | Print | Product List | Glossary On
Versions: 1 2 3 4 5 6 7 8 9 10 11 12 13 14 15 16 17 18 19 20 21 22 23 24 25 26 27 28 29 30 31 32 33 34 35 36 37 38 39 40 41 42 43 44 45 46 47 48 49 50
000
FPUS83 KFGF 231931
OPUFGF
PRAIRIE TO PINES WEATHER ROUNDUP
NATIONAL WEATHER SERVICE EASTERN NORTH DAKOTA/GRAND FORKS ND
200 PM CDT SAT AUG 23 2014

 **SATELLITE DATA USED TO AUGMENT SKY COVER AT AUTOMATED STATIONS**
 *****  WEATHER ACROSS EASTERN NORTH DAKOTA  *****

CITY           SKY/WX    TMP DP  RH WIND       PRES   REMARKS
GRAND FORKS    CLOUDY    73  68  83 NE5       29.96F
GRAND FORKS AF CLOUDY    67  67 100 N9        29.99F
GRAND CITY NWS   N/A     64 N/A N/A E6          N/A
BUXTON           N/A     73  72  99 NE3         N/A
DEVILS LAKE    CLOUDY    63  57  82 NE15G21   29.97F
FARGO          LGT RAIN  73  68  84 E10       29.94F
WAHPETON ARPT  CLOUDY    70  63  78 E10       29.92F
$$

 *****  WEATHER ACROSS CENTRAL AND WESTERN NORTH DAKOTA  *****

CITY           SKY/WX    TMP DP  RH WIND       PRES   REMARKS
JAMESTOWN      CLOUDY    66  64  93 E14G20    29.92F
BISMARCK       RAIN      62  61  96 NE16      29.90S FOG
MINOT          LGT RAIN  58  56  93 N14       30.00F FOG
MINOT AFB      RAIN      57  57 100 NE12      30.01F
GARRISON         N/A     58  57  97 NE14G22   29.97F
WILLISTON      RAIN      56  54  93 NE15G22   30.01F
DICKINSON      LGT RAIN  57  56  96 NE18G25   29.89F FOG
HETTINGER      RAIN      59  57  93 NE18G30   29.84F FOG
$$

 *****  OTHER OBSERVATIONS NORTHEAST NORTH DAKOTA  *****

CITY           SKY/WX    TMP DP  RH WIND       PRES   REMARKS
WALHALLA         N/A     63  63 100 N10       30.05F
LANGDON        LGT RAIN  59  59 100 NE17      30.04F
CAVALIER       CLOUDY    66  63  88 N12       30.03F
GRAFTON        CLOUDY    68  64  88 N13       30.00F
CANDO          MOCLDY    59  59 100 NE13      30.01F
FORT TOTTEN      N/A     62  62  98 E7        29.95S
ROLLA          MOCLDY    57  57 100 NE15G25   30.06F FOG
RUGBY          CLOUDY    59  59 100 NE15G23   30.01S FOG
 ***** THE ABOVE OBSERVATIONS ARE NON NWS ARE NOT QUALITY
        CONTROLLED AND MAY MIS-REPORT RAIN FOR SNOW...
$$

 *****  OTHER OBSERVATIONS SOUTHEAST NORTH DAKOTA *****

CITY           SKY/WX    TMP DP  RH WIND       PRES   REMARKS
COOPERSTOWN    NOT AVBL
VALLEY CITY    CLOUDY    66  66 100 E9        29.94F
OAKES            N/A     68  68 100 E15G23    29.90R
GWINNER        CLOUDY    70  70 100 E14G20    29.92S
BUFFALO          N/A     70  68  92 E16         N/A
WYNDMERE       NOT AVBL
 ***** THE ABOVE OBSERVATIONS ARE NON NWS ARE NOT QUALITY
       CONTROLLED AND MAY MIS-REPORT RAIN FOR SNOW...
$$

  *****  WEATHER ACROSS NORTHERN MINNESOTA  *****

CITY           SKY/WX    TMP DP  RH WIND       PRES   REMARKS
FLAG ISLAND    CLOUDY    75  64  69 E5        30.05S
WARROAD        CLOUDY    72  70  94 NE10      30.05S
ROSEAU         CLOUDY    75  68  78 E15       30.03F
HALLOCK        CLOUDY    73  68  83 N5        30.00F
THF RVR FALLS  CLOUDY    73  66  78 E10       30.00F
HALSTAD          N/A     74  68  81 E8          N/A
FOSSTON        CLOUDY    73  66  78 E7        30.00F
BAUDETTE       CLOUDY    73  66  78 E9        30.05F
WASKISH        CLOUDY    75  66  73 CALM      30.03F
CROOKSTON      CLOUDY    75  68  78 E9        29.98F
$$
  *****  WEATHER ACROSS CENTRAL AND WEST MINNESOTA  *****

CITY           SKY/WX    TMP DP  RH WIND       PRES   REMARKS
BEMIDJI        CLOUDY    72  65  78 E9        30.02S
PARK RAPIDS    CLOUDY    71  63  75 E7        30.01R
WADENA         CLOUDY    66  64  94 E9        29.98S
DETROIT LAKES  LGT RAIN  70  63  78 SE12      29.99S
MOORHEAD       LGT RAIN  72  72 100 E9        29.94F
FERGUS FALLS   CLOUDY    72  64  78 E8        29.93F
ELBOW LAKE     CLOUDY    70  65  85 E16       29.93F
MORRIS MN      CLOUDY    72  68  88 E12G18    29.93R
STAPLES        CLOUDY    68  63  83 E6        30.00F
WHEATON        CLOUDY    68  64  88 E15       29.94R
$$
  *****  WEATHER ELSEWHERE ACROSS MINNESOTA  *****

CITY           SKY/WX    TMP DP  RH WIND       PRES   REMARKS
DULUTH         FOG       65  63  93 E14G22    30.05F VSB 1/2
INTRNTL FALLS  CLOUDY    75  62  64 E12       30.06S
ELY            CLOUDY    72  63  73 E7        30.08R
CLOQUET        CLOUDY    64  61  88 E12       30.05S FOG
BRAINERD       CLOUDY    68  64  87 E6        30.02R
HIBBING        CLOUDY    72  64  76 VRB7      30.06S
ALEXANDRIA     LGT RAIN  70  66  87 E14       29.98F
SAINT CLOUD    CLOUDY    76  66  71 E10       29.96F
MINNEAPOLIS    CLOUDY    73  69  87 NE9       29.96S
$$

  *****  WEATHER ACROSS SOUTH DAKOTA  *****

CITY           SKY/WX    TMP DP  RH WIND       PRES   REMARKS
SIOUX FALLS    PTSUNNY   78  72  81 SE13      29.86F
BROOKINGS      NOT AVBL
WATERTOWN      CLOUDY    72  67  84 SE10G17   29.89S
HURON          CLOUDY    81  68  64 SE14      29.81F
SISSETON         N/A     71  67  87 SE10      29.90S
ABERDEEN       CLOUDY    70  67  90 E16G22    29.86S
MITCHELL       MOSUNNY   80  70  71 SE16      29.81F
PIERRE         CLOUDY    74  67  78 SE15      29.75F
MOBRIDGE       CLOUDY    68  67  96 E22G29    29.76F
RAPID CITY     PTSUNNY   74  63  68 VRB5      29.81F
$$

  *****  SOME WEATHER IN NEARBY STATES *****

CITY           SKY/WX    TMP DP  RH WIND       PRES   REMARKS
GLASGOW MT     RAIN      54  52  93 NE24G32   29.98F FOG
GREAT FALLS MT RAIN      49  48  97 N21G28    30.15R FOG
CHEYENNE WY    LGT RAIN  68  51  54 SW8       29.98S
SCOTTSBLUFF NE MOSUNNY   81  58  45 W13       29.86F
OMAHA NE       PTSUNNY   87  74  64 S14       29.83F HX  95
DES MOINES IA  PTSUNNY   86  72  62 SE12      29.89F HX  92
DAVENPORT IA   CLOUDY    73  71  93 SE9       29.94F
CHICAGO IL     TSTM      71  66  84 NE18      30.03R
EAU CLAIRE WI  CLOUDY    79  73  82 E9        29.95F
LA CROSSE WI   LGT RAIN  75  71  87 E8        29.92F
$$

  *****  SOME NATIONAL WEATHER *****

CITY           SKY/WX    TMP DP  RH WIND       PRES   REMARKS
LA GUARDIA NY  PTSUNNY   73  58  59 NE13      30.08F
RALEIGH NC     PTSUNNY   81  71  71 NE6       29.94F
ATLANTA GA     MOSUNNY   91  70  49 NW12      29.99F HX  96
NEW ORLEANS LA MOSUNNY   94  74  52 N7        30.00F HX 104
OKLAHOMA CITY  MOSUNNY   98  57  25 S15G23    29.94F HX  97
ALBUQUERQUE NM MOSUNNY   73  51  46 W8        30.15F
SALT LAKE CITY PTSUNNY   67  48  50 VRB7      30.05F
LOS ANGELES CA MOSUNNY   75  60  59 W9        29.96F
BOISE ID       SUNNY     71  43  36 NW14      30.05F
SEATTLE WA     SUNNY     72  55  55 W6        30.14F
$$

*** WEATHER ACROSS MANITOBA...SASKATCHEWAN AND ONTARIO ***
                ***ONTARIO***

CITY           SKY/WX    TMP DP  RH WIND       PRES   REMARKS
GERALDTON      MOSUNNY   81  63  54 CALM      30.13S
THUNDER BAY    CLOUDY    72  63  73 E9        30.10S
SIOUX LOOKOUT  PTSUNNY   72  64  78 NE5       30.13F
TORONTO        PTSUNNY   72  63  73 E10       30.11S
BIG TROUT LK   CLOUDY    48  46  93 NE7G18    30.36R
PICKLE LAKE    CLOUDY    57  52  82 NE10G17   30.23S
DRYDEN         CLOUDY    73  64  73 NE13      30.11F
KENORA         CLOUDY    72  64  78 E10       30.10F
$$
                *** MANITOBA***

CITY           SKY/WX    TMP DP  RH WIND       PRES   REMARKS
BRANDON        LGT RAIN  57  54  88 NE20G28   30.13F
DAUPHIN        LGT RAIN  55  54  94 NE15G21   30.21F FOG
ISLAND LAKE    PTSUNNY   54  43  66 NE8G18    30.38S
PILOT MOUND      N/A     59  57  94 NE15G21     N/A
THE PAS        CLOUDY    57  43  58 N10       30.36F
THOMPSON       MOSUNNY   57  43  58 E12G20    30.43F
WINNIPEG       CLOUDY    63  61  94 NE14      30.10F
LYNN LAKE      CLOUDY    54  46  76 MISG      30.47S
CHURCHILL      MOSUNNY   50  36  57 NE10      30.51S
GILLAM         PTSUNNY   55  43  62 NE9       30.47S
$$
                ***SASKATCHEWAN***

CITY           SKY/WX    TMP DP  RH WIND       PRES   REMARKS
ESTEVAN        LGT RAIN  57  52  82 NE9       30.09F
KINDERSLEY     CLOUDY    63  48  59 E14       30.27S
LLOYDMINSTER   PTSUNNY   59  50  72 NE9       30.31F
PRINCE ALBERT  PTSUNNY   59  50  72 E13G20    30.33F
REGINA         CLOUDY    57  50  77 NE13G20   30.18F
YORKTON        CLOUDY    61  48  63 NE17G24   30.21F


USA.gov is the U.S. government's official web portal to all federal, state and local government web resources and services.